Regional Weather Roundup
Issued by NWS

Home | Current Version | Previous Version | Text Only | Print | Product List | Glossary On
Versions: 1 2 3 4 5 6 7 8 9 10 11 12 13 14 15 16 17 18 19 20 21 22 23 24 25 26 27 28 29 30 31 32 33 34 35 36 37 38 39 40 41 42 43 44 45 46 47 48 49 50
000
ASUS46 KSEW 241210
RWRWA

WASHINGTON REGIONAL WEATHER ROUNDUP
NATIONAL WEATHER SERVICE SEATTLE WA
500 AM PDT SUN SEP 24 2017

NOTE:"FAIR" INDICATES FEW OR NO CLOUDS BELOW 12,000 FEET WITH NO
SIGNIFICANT WEATHER AND/OR OBSTRUCTIONS TO VISIBILITY.

WAZ507-509-555>559-241300-
SEATTLE, TACOMA, EVERETT, AND VICINITY

CITY           SKY/WX    TMP DP  RH WIND       PRES   REMARKS
EVERETT        CLEAR     51  49  92 NW3       30.16R
6HR MIN TEMP:  50; 6HR MAX TEMP:  54;

BOEING FIELD   CLEAR     51  48  89 CALM      30.15R
6HR MIN TEMP:  50; 6HR MAX TEMP:  58;

RENTON         CLEAR     50  48  93 CALM      30.15S
6HR MIN TEMP:  49; 6HR MAX TEMP:  56;

SEATAC AIRPORT CLEAR     52  47  83 E3        30.15R
6HR MIN TEMP:  51; 6HR MAX TEMP:  60;

JBLM-MCCHORD   CLEAR     43  43 100 CALM      30.14S
6HR MIN TEMP:  42; 6HR MAX TEMP:  49;

PUYALLUP       FAIR      45  45 100 CALM      30.14S
BREMERTON      CLEAR     44  43  96 CALM      30.15R
6HR MIN TEMP:  43; 6HR MAX TEMP:  53;

JBLM-FT LEWIS  CLEAR     44  44 100 SE3       30.14R
6HR MIN TEMP:  44; 6HR MAX TEMP:  52;

TACOMA NARROWS CLEAR     50  49  96 CALM      30.15R
6HR MIN TEMP:  49; 6HR MAX TEMP:  56;

$$

WAZ001-503-506-510-514-515-241300-
NORTH INTERIOR

CITY           SKY/WX    TMP DP  RH WIND       PRES   REMARKS
BELLINGHAM     PTCLDY    48  47  96 CALM      30.15R
6HR MIN TEMP:  45; 6HR MAX TEMP:  50;

FRIDAY HARBOR  PTCLDY    46  46 100 CALM      30.16R
6HR MIN TEMP:  43; 6HR MAX TEMP:  49;

EASTSOUND      PTCLDY    50  48  93 CALM      30.15S
PORT ANGELES   PTCLDY    47  44  90 S5        30.15F
6HR MIN TEMP:  46; 6HR MAX TEMP:  55;

EDIZ HOOK      PTSUNNY   49  48  97 SE7       30.15F FOG
6HR MIN TEMP:  49; 6HR MAX TEMP:  54;

PORT TOWNSEND  FAIR      48  46  93 CALM      30.16R
NAS WHIDBEY    CLOUDY    50  46  86 SE3       30.20R FOG
6HR MIN TEMP:  47; 6HR MAX TEMP:  52;

ARLINGTON      CLEAR     43  42  97 CALM      30.16S
6HR MIN TEMP:  43; 6HR MAX TEMP:  54;

BURLINGTON     MOCLDY    48  46  93 CALM      30.16R
$$

WAZ020-022-039-040-504-511-512-241300-
SOUTHWEST INTERIOR

CITY           SKY/WX    TMP DP  RH WIND       PRES   REMARKS
SHELTON        PTCLDY    45  44  97 CALM      30.13R
6HR MIN TEMP:  43; 6HR MAX TEMP:  55;

OLYMPIA        CLOUDY    43  43 100 W3        30.15R FOG
6HR MIN TEMP:  42; 6HR MAX TEMP:  51;

CHEHALIS       CLOUDY    48  48 100 CALM      30.15R FOG
KELSO          CLEAR     47  46  97 CALM      30.14S
6HR MIN TEMP:  46; 6HR MAX TEMP:  53;

VANCOUVER      CLEAR     49  48  97 CALM      30.12S
6HR MIN TEMP:  48; 6HR MAX TEMP:  57;

SCAPPOOSE, OR  PTCLDY    46  46 100 W3        30.12S FOG
6HR MIN TEMP:  45; 6HR MAX TEMP:  52;

PORTLAND, OR   CLEAR     49  47  93 CALM      30.13S
6HR MIN TEMP:  48; 6HR MAX TEMP:  60;

$$

WAZ021-516-517-241300-
WASHINGTON COAST

CITY           SKY/WX    TMP DP  RH WIND       PRES   REMARKS
FORKS          CLOUDY    50  48  93 E3        30.14S
6HR MIN TEMP:  47; 6HR MAX TEMP:  50;

HOQUIAM        FOG       48  48 100 NE6       30.14F VSB 3/4
6HR MIN TEMP:  47; 6HR MAX TEMP:  53;

ASTORIA, OR    CLOUDY    49  47  93 CALM      30.13R
6HR MIN TEMP:  47; 6HR MAX TEMP:  52;

$$

WAZ019-023-024-040-567>569-241300-
CASCADE MOUNTAINS AND COLUMBIA GORGE

CITY           SKY/WX    TMP DP  RH WIND       PRES   REMARKS
STAMPEDE PASS  NOT AVBL
TROUTDALE, OR  CLEAR     45  43  93 E3        30.13S
6HR MIN TEMP:  45; 6HR MAX TEMP:  54;

HOOD RIVER, OR NOT AVBL
THE DALLES, OR CLEAR     49  45  86 CALM      30.11R
6HR MIN TEMP:  48; 6HR MAX TEMP:  62;

$$

WAZ026-027-041>044-520-521-241300-
EAST SLOPES

CITY           SKY/WX    TMP DP  RH WIND       PRES   REMARKS
OMAK           CLEAR     47  39  74 N9        30.11S
6HR MIN TEMP:  44; 6HR MAX TEMP:  59;

WENATCHEE      CLEAR     48  42  80 CALM      30.10S
6HR MIN TEMP:  47; 6HR MAX TEMP:  57;

ELLENSBURG     CLEAR     40  35  83 CALM      30.11R
6HR MIN TEMP:  40; 6HR MAX TEMP:  54;

YAKIMA         CLEAR     45  39  79 W7        30.11R
6HR MIN TEMP:  43; 6HR MAX TEMP:  56;

SUNNYSIDE ARPT SUNNY     40  38  92 CALM      30.10R
6HR MIN TEMP:  40; 6HR MAX TEMP:  54;

YAKIMA TC      FAIR      47  40  76 CALM      30.09R
6HR MIN TEMP:  43; 6HR MAX TEMP:  53;

$$

WAZ028-034-035-241300-
COLUMBIA BASIN

CITY           SKY/WX    TMP DP  RH WIND       PRES   REMARKS
EPHRATA        CLEAR     53  35  50 NW9       30.08R
6HR MIN TEMP:  52; 6HR MAX TEMP:  55;

MOSES LAKE     CLEAR     46  39  76 N8        30.09R
6HR MIN TEMP:  45; 6HR MAX TEMP:  57;

PASCO          CLOUDY    45  43  93 CALM      30.09S
6HR MIN TEMP:  44; 6HR MAX TEMP:  55;

RICHLAND ARPT  MOSUNNY   47  45  92 CALM      30.09S
6HR MIN TEMP:  46; 6HR MAX TEMP:  58;

HERMISTON, OR  CLEAR     42  40  92 S6        30.09R
6HR MIN TEMP:  42; 6HR MAX TEMP:  51;

$$

WAZ036>038-241300-
NORTHEAST WASHINGTON

CITY           SKY/WX    TMP DP  RH WIND       PRES   REMARKS
SPOKANE GEIGER PTCLDY    47  43  86 S6        30.09F
6HR MIN TEMP:  47; 6HR MAX TEMP:  55;

SPOKANE FELTS  CLOUDY    50  45  83 E3        30.10S
6HR MIN TEMP:  50; 6HR MAX TEMP:  56;

FAIRCHILD AFB  MOCLDY    46  43  88 CALM      30.09S
6HR MIN TEMP:  46; 6HR MAX TEMP:  53;

COEURDALENE,ID CLOUDY    50  45  83 CALM      30.11R
6HR MIN TEMP:  50; 6HR MAX TEMP:  53;

DEER PARK      PTCLDY    40  39  97 CALM      30.10S
6HR MIN TEMP:  40; 6HR MAX TEMP:  52; 6HR PCP: TRACE;

$$

WAZ029>033-241300-
SOUTHEAST WASHINGTON

CITY           SKY/WX    TMP DP  RH WIND       PRES   REMARKS
PULLMAN        CLOUDY    47  40  76 NE3       30.12S
6HR MIN TEMP:  46; 6HR MAX TEMP:  50;

LEWISTON, ID   CLOUDY    49  42  77 E7        30.12S
6HR MIN TEMP:  47; 6HR MAX TEMP:  52;

WALLA WALLA    CLOUDY    55  44  66 CALM      30.08S
6HR MIN TEMP:  53; 6HR MAX TEMP:  62;

PENDLETON, OR  CLEAR     45  38  76 S8        30.09S
6HR MIN TEMP:  43; 6HR MAX TEMP:  50;

$$



USA.gov is the U.S. government's official web portal to all federal, state and local government web resources and services.